User: anonymous   Login
Location: Unspecified
(0.0000°N, 0.0000°E)
Time: 23:01:10
(UTC+00:00)
Language:

USA 267 - Orbit

View from above orbital plane
View from above orbital plane
View from above satellite
View from above satellite

Ground track
Ground track

The orbit data is extracted from the following two-line orbital elements,

1 41334U 16010A   18260.78908673 0.00000000  00000-0  00000-0 0    01
2 41334 123.0034  65.4927 0004500  89.0437 270.9563 13.41410714    01
Epoch (UTC): 17 September 2018 18:56:17
Eccentricity: 0.0004500
inclination: 123.0034°
perigee height: 1100 km
apogee height: 1107 km
right ascension of ascending node: 65.4927°
argument of perigee: 89.0437°
revolutions per day: 13.41410714
mean anomaly at epoch: 270.9563°
orbit number at epoch: 0

The dashed part of the orbit path shows where the satellite is in the earth's shadow,  

DLR